Theta_e
352 347 344 341 339 345 345 345 344 343 338 336 338 340 338 336 336 338 339 337 338 336 335 335 335 334 334 333 336 335 336 338 338 337 337 336 338 339 339 340 337 337 336
353 348 346 343 340 345 346 345 345 342 339 336 336 338 339 339 339 337 337 337 337 337 338 338 337 336 336 334 335 336 337 335 336 337 333 335 335 337 335 338 337 336 335
349 348 347 345 342 344 346 346 346 345 342 340 336 336 337 337 337 335 337 338 337 337 335 335 337 338 337 337 337 337 336 337 336 335 336 334 332 332 336 338 336 335 335
347 349 348 348 345 342 345 347 346 346 342 340 337 333 333 332 334 334 336 338 336 337 337 336 335 336 337 335 335 334 335 337 337 337 338 338 337 337 336 338 336 335 335
346 350 349 350 350 345 343 347 347 348 345 342 338 337 338 336 335 334 336 337 337 337 336 336 336 335 335 335 335 334 336 335 334 331 336 338 338 339 338 338 336 335 335
349 348 350 344 344 345 344 344 345 347 344 341 340 341 342 339 336 335 337 335 336 337 337 337 338 336 333 336 335 334 328 328 331 334 335 336 336 336 338 337 336 334 333
340 344 338 336 342 342 335 339 337 344 345 342 341 342 341 342 339 337 337 338 337 337 338 338 337 337 334 335 335 334 331 332 335 335 336 337 337 336 336 337 335 335 334
335 334 335 334 334 336 334 334 340 343 344 345 341 342 341 341 340 340 338 340 339 339 339 339 338 336 336 335 334 334 333 332 334 333 333 333 334 334 335 336 336 335 334
332 332 333 335 334 333 333 333 339 343 345 346 345 337 334 335 334 340 340 340 340 340 339 340 338 336 335 334 334 333 332 332 333 333 332 332 332 333 335 335 335 334 333
341 338 337 335 334 336 337 341 344 345 345 346 346 345 340 335 335 334 338 341 340 340 340 340 338 335 336 334 333 332 330 331 333 332 332 330 331 333 334 334 333 334 334
338 339 339 339 339 340 345 347 346 346 346 347 346 345 344 337 333 333 335 338 338 340 340 339 338 334 334 335 333 332 331 331 329 330 330 329 330 330 331 332 332 332 332
330 331 332 335 336 336 336 339 343 344 344 344 345 345 343 336 334 335 338 335 331 332 337 338 338 333 334 335 333 331 330 330 331 331 331 331 329 328 328 329 328 328 331
328 330 332 334 335 336 335 335 336 336 337 338 338 338 337 336 331 328 333 331 330 330 336 337 336 333 334 334 332 332 329 328 331 330 332 332 330 330 328 328 328 329 328
324 325 327 330 332 334 335 333 331 330 330 333 331 330 330 330 332 333 331 329 329 332 336 335 333 333 334 333 331 331 327 327 330 331 331 330 329 329 329 329 329 328 328
323 324 325 326 329 331 333 334 333 335 335 334 331 333 330 331 334 333 332 334 332 335 336 333 333 333 333 332 332 331 328 327 326 326 326 325 325 326 327 327 327 326 325
318 324 325 326 327 328 329 331 332 333 334 333 335 333 332 332 333 335 335 333 335 333 332 332 332 331 330 329 330 330 330 330 330 329 329 329 328 327 326 325 323 325 325
315 322 324 323 326 328 328 330 332 333 334 334 333 335 335 331 331 336 335 335 333 332 332 332 331 330 330 331 331 331 331 330 329 329 329 329 328 328 328 327 326 325 326
316 317 323 322 323 325 326 327 328 330 330 331 332 333 333 333 335 335 332 332 332 332 331 330 331 330 329 330 330 330 329 328 326 325 324 324 325 325 324 324 323 323 323
315 315 318 322 322 323 325 326 326 327 328 329 330 332 332 332 334 333 333 333 332 332 330 328 327 329 329 329 327 326 325 324 324 325 323 323 323 322 321 319 319 318 318
315 315 316 320 321 323 325 327 325 325 325 326 326 327 330 330 333 332 331 329 328 331 330 329 328 326 326 326 325 324 323 323 321 319 319 318 317 318 316 317 316 316 315
319 318 316 320 323 323 324 325 325 325 324 323 323 323 323 324 327 324 323 324 326 325 325 325 326 326 325 323 319 318 318 318 318 318 317 316 316 316 315 314 313 313 312
319 318 319 322 322 324 324 325 327 324 323 322 321 320 320 322 323 324 322 323 323 324 323 323 322 321 320 320 320 319 319 318 317 316 314 313 310 307 309 310 309 308 307
320 321 322 323 323 324 326 325 325 325 323 324 325 323 321 320 324 322 322 319 323 321 320 320 320 321 320 319 319 317 316 316 315 312 309 305 304 305 306 307 307 307 307
320 321 321 323 324 324 324 324 325 325 323 324 323 323 321 323 324 324 323 324 323 322 322 321 320 319 318 317 315 313 310 308 306 304 303 305 305 303 307 307 306 304 305
321 322 321 322 323 323 322 326 327 323 323 323 323 322 323 323 323 323 323 322 321 320 318 316 313 311 309 307 305 303 302 302 302 302 301 301 301 301 305 306 306 304 302
317 318 318 319 320 321 322 321 322 323 323 323 322 322 322 322 322 321 319 318 316 313 311 309 307 304 303 302 302 301 301 301 300 300 299 299 298 298 298 298 297 298 296
Wind_Speed
26 23 21 20 21 18 18 19 17 15 15 17 16 14 12 11 10 10 10 11 12 14 14 15 16 14 13 11 10 9 9 9 11 12 12 13 12 11 10 12 12 9 7
22 21 20 20 22 21 19 20 19 18 18 19 17 16 15 13 13 12 12 12 13 13 13 15 16 17 16 15 15 13 12 12 13 12 10 12 13 11 9 13 14 11 10
20 18 19 20 21 21 20 20 21 20 21 22 21 20 18 16 16 14 14 13 12 11 10 13 13 14 14 13 12 11 13 13 13 14 15 12 12 13 14 17 15 13 13
22 18 18 17 18 19 18 20 21 23 25 25 24 22 21 19 17 15 15 14 13 13 12 11 12 13 14 13 11 13 12 13 14 15 17 16 17 16 15 20 17 16 16
19 24 25 20 18 18 16 19 23 25 27 26 25 24 21 20 18 17 16 15 14 12 12 12 13 13 13 13 12 11 11 13 15 15 15 15 16 18 19 20 20 18 18
21 28 26 20 16 19 17 17 22 28 28 28 29 28 25 22 19 17 15 16 14 13 12 13 14 14 15 15 13 12 12 11 11 9 11 12 13 14 16 20 18 18 15
7 14 9 4 17 19 18 19 33 32 31 28 29 30 28 23 20 19 18 19 17 15 13 12 13 15 14 14 13 12 10 10 11 9 8 8 8 9 10 17 21 19 15
14 12 12 9 8 22 22 33 37 36 37 36 32 32 30 26 22 21 22 22 22 20 17 16 14 15 14 14 14 13 11 10 9 8 8 7 8 8 10 10 15 19 15
17 16 16 11 12 16 26 24 29 32 36 42 37 35 27 28 22 22 25 26 27 25 22 19 16 16 15 15 13 11 11 12 12 11 10 9 9 8 7 9 14 17 16
14 15 13 13 22 29 32 37 37 34 35 37 38 40 35 29 27 22 27 30 29 30 28 23 19 17 16 16 14 12 10 12 12 12 11 8 10 7 8 9 11 13 14
4 6 9 11 14 17 19 22 25 30 33 34 35 37 37 34 31 27 26 35 36 34 33 26 21 17 18 17 15 13 11 10 9 10 7 6 7 8 9 10 12 14 13
4 6 8 8 9 13 15 16 18 21 28 32 36 37 34 35 41 41 39 36 40 36 35 28 21 18 19 19 15 13 11 12 11 9 8 6 5 7 7 7 8 9 11
9 6 5 5 5 7 10 13 17 21 24 25 29 33 36 38 36 33 32 27 31 32 33 28 20 19 20 20 16 14 12 12 10 11 8 8 8 8 7 7 7 7 8
17 15 11 8 8 9 10 11 14 15 17 19 23 24 23 20 20 21 18 27 32 33 33 25 20 22 23 21 17 16 15 14 12 10 9 9 9 10 9 9 9 9 8
18 20 16 14 9 8 11 14 15 14 15 15 12 12 15 14 14 15 21 21 27 32 28 21 25 26 24 21 20 18 17 15 13 12 12 11 10 10 8 10 11 11 9
16 17 17 16 15 11 11 15 16 15 15 13 11 13 9 12 11 12 14 18 26 25 22 23 28 27 22 20 20 20 18 16 14 12 12 13 13 13 12 12 11 8 7
13 13 13 16 14 17 12 12 12 14 13 13 13 13 13 12 11 7 14 20 24 23 23 25 29 26 23 22 20 18 18 17 14 11 10 10 13 11 10 10 10 10 9
13 12 13 15 15 16 17 14 13 12 12 11 12 12 14 15 11 18 20 23 26 25 22 22 25 21 21 23 20 17 13 10 10 10 10 9 9 8 8 7 7 8 7
16 13 14 14 15 16 16 14 14 12 11 11 11 8 6 18 16 21 15 29 34 30 28 25 18 19 21 18 17 14 12 12 11 11 7 8 7 6 7 7 7 6 6
15 12 11 12 13 12 12 12 10 8 9 15 17 10 6 10 17 19 25 23 22 33 25 27 24 21 18 17 17 15 13 12 11 10 11 10 10 8 7 8 8 7 7
13 11 8 9 10 11 8 9 7 2 2 8 5 13 16 17 22 22 17 15 12 13 16 19 21 21 18 17 17 18 17 16 14 13 11 10 9 8 7 7 8 7 5
14 11 9 9 9 7 6 6 5 2 2 1 5 9 9 12 14 21 19 23 23 22 19 17 17 18 18 15 16 15 14 13 12 11 10 10 10 9 9 9 8 7 6
10 8 8 8 8 6 4 3 3 3 2 6 6 6 9 8 8 12 13 16 23 14 19 18 17 16 15 15 15 13 11 11 10 11 11 10 10 9 9 8 7 6 5
10 9 8 8 8 8 6 4 4 1 8 7 6 9 13 12 13 13 12 16 27 21 21 18 15 12 13 12 12 12 12 10 10 10 9 9 9 8 7 7 6 5 4
10 11 11 9 8 8 8 5 7 10 13 9 9 8 7 10 16 20 22 21 21 19 16 15 15 15 14 13 12 11 10 10 9 9 9 8 8 7 6 6 5 4 3
10 12 12 12 13 12 9 10 7 4 7 6 3 1 6 14 18 19 17 15 16 16 16 16 15 14 12 12 11 10 9 9 9 8 8 8 7 6 6 5 4 3 3
Wind_Direction
206 210 212 215 212 214 218 227 227 227 227 224 227 228 227 225 228 235 240 242 244 240 232 230 235 239 240 241 247 252 260 252 248 249 247 251 253 241 246 244 243 240 214
199 206 206 214 212 213 218 223 227 229 229 227 231 228 228 233 233 230 233 241 240 238 242 245 243 243 241 245 247 252 251 252 256 251 267 257 231 231 254 261 229 221 215
192 197 202 210 215 219 223 227 235 236 232 229 230 234 232 234 238 237 231 230 231 231 240 247 251 245 241 237 241 251 258 253 251 250 253 239 230 240 242 236 218 215 216
170 193 205 211 213 222 226 237 241 246 239 232 231 230 235 237 237 239 231 234 238 241 252 263 261 247 249 246 250 264 252 245 243 243 247 250 245 247 246 238 216 215 212
173 197 204 205 215 211 220 243 249 251 250 245 238 237 240 239 239 234 231 237 235 240 246 261 263 270 254 245 258 262 252 255 256 250 244 246 244 240 237 228 222 219 207
211 209 210 195 208 204 199 227 258 261 252 247 244 244 246 245 245 235 232 228 221 233 244 255 265 266 254 250 257 263 257 245 242 237 232 244 243 239 239 226 214 211 207
203 205 195 232 223 212 246 259 281 257 259 251 251 249 249 251 256 240 226 231 231 231 243 253 257 259 255 247 254 259 254 225 216 230 237 212 217 214 218 224 215 216 227
214 232 231 232 242 232 264 263 268 250 253 255 258 257 259 253 253 252 240 237 242 245 247 252 250 245 241 248 249 252 246 229 217 226 249 249 238 242 226 221 224 222 216
175 167 175 191 283 272 238 222 253 255 256 256 255 253 270 272 259 251 248 246 246 248 250 253 246 233 236 235 239 240 233 227 217 226 237 236 230 239 224 202 209 213 217
195 221 234 233 220 228 237 248 257 259 258 253 253 252 260 268 266 271 249 245 248 247 244 246 247 230 230 227 228 226 218 223 225 228 224 236 217 221 200 199 207 206 210
228 245 246 257 265 262 258 260 264 260 258 258 259 259 267 263 260 264 267 249 246 246 244 238 243 224 214 218 223 225 217 214 208 197 212 213 211 219 206 196 202 211 221
12 303 296 296 300 289 280 269 267 265 264 264 263 267 264 266 266 271 271 247 242 251 241 235 235 217 205 208 215 222 226 220 204 189 187 191 202 207 206 209 206 202 210
23 355 321 298 281 274 271 268 264 261 262 265 266 268 268 269 272 268 256 248 234 239 236 229 223 209 203 207 206 215 214 213 207 204 204 204 200 202 204 202 202 200 199
25 17 3 340 312 290 274 268 265 268 273 284 279 273 273 271 276 266 253 239 235 227 222 216 210 200 203 205 206 208 207 205 202 207 205 208 207 211 216 216 227 232 232
16 8 360 358 345 323 296 286 277 281 293 299 293 291 279 269 277 266 251 241 218 210 199 195 193 195 196 200 204 206 207 206 207 209 207 208 210 215 216 225 230 238 233
354 359 0 355 346 343 330 306 293 290 289 282 292 291 288 257 285 276 245 216 202 187 191 196 194 193 192 194 200 203 205 207 213 221 220 216 222 223 229 234 236 220 219
340 338 346 353 2 354 349 319 319 314 308 290 275 273 273 260 261 200 160 173 171 186 196 191 194 194 195 201 202 202 214 211 205 209 213 224 233 225 229 223 236 226 213
331 320 324 339 348 357 353 349 340 332 317 308 292 276 259 237 217 208 189 183 178 180 182 182 187 185 199 202 193 187 183 193 195 203 211 206 199 202 192 188 202 193 197
331 321 317 330 341 336 351 352 357 347 337 326 322 314 250 198 191 203 224 211 181 179 175 183 195 191 181 170 180 185 188 191 191 183 200 189 190 184 181 174 179 181 162
328 320 309 319 335 343 355 356 1 20 54 52 51 50 104 185 199 196 195 190 185 178 175 166 167 177 183 184 181 179 181 187 173 153 146 146 140 136 144 143 140 138 153
329 324 318 333 330 340 347 5 14 296 24 7 65 89 90 99 113 118 116 117 123 128 145 158 156 157 159 166 165 157 154 150 150 144 141 142 142 143 138 144 141 127 124
335 335 341 337 337 334 319 314 358 318 278 284 103 104 123 152 139 128 123 128 136 139 129 128 130 141 145 147 152 152 152 155 158 157 151 142 139 138 130 129 128 125 120
351 355 351 350 341 333 344 244 300 319 205 157 149 144 139 143 144 136 147 154 152 138 157 158 163 165 163 161 156 160 166 174 174 160 151 147 146 142 138 137 135 134 134
2 359 11 19 25 16 11 38 50 120 169 174 141 104 111 116 131 143 162 162 155 162 151 152 157 163 165 166 165 163 161 161 162 162 160 155 158 152 148 146 143 151 150
18 23 31 37 43 44 31 60 105 128 173 168 165 142 129 142 138 135 134 134 139 144 147 155 155 152 151 155 155 154 156 158 163 163 164 168 167 165 162 163 161 174 185
26 33 34 42 48 50 56 63 80 119 176 175 197 178 158 177 158 146 140 142 149 149 147 149 148 150 153 152 148 149 149 152 157 156 156 153 153 161 171 180 197 207 251